This is the latest recevied weather packets stored in our database for station/object NG7M. If no packets are shown the sender has not sent any weather packets the latest 10 day(s).
| Time | Temp. | Humidity | Pressure | Rain* | Wind** | Luminosity | Snow |
|---|---|---|---|---|---|---|---|
| 1777878004 | 14.44° C | 27% | 1008.2 hPa | 0 mm | - | - | - |
| 1777873803 | 15° C | 30% | 1008.3 hPa | 0 mm | - | - | - |
| 1777872903 | 16.11° C | 28% | 1008.2 hPa | 0 mm | - | - | - |
| 1777871104 | 18.33° C | 19% | 1008.4 hPa | 0 mm | - | - | - |
| 1777862704 | 21.11° C | 16% | 1008.8 hPa | 0 mm | - | - | - |
| 1777861504 | 21.67° C | 16% | 1008.8 hPa | 0 mm | - | - | - |
| 1777861204 | 21.67° C | 16% | 1008.8 hPa | 0 mm | - | - | - |
| 1777860304 | 22.22° C | 17% | 1008.8 hPa | 0 mm | - | - | - |
| 1777859104 | 22.78° C | 17% | 1008.9 hPa | 0 mm | - | - | - |
| 1777858203 | 23.33° C | 16% | 1009.3 hPa | 0 mm | - | - | - |
| 1777856704 | 24.44° C | 14% | 1009.4 hPa | 0 mm | - | - | - |
| 1777855803 | 25° C | 12% | 1009.5 hPa | 0 mm | - | - | - |
| 1777854304 | 25° C | 11% | 1009.7 hPa | 0 mm | - | - | - |
| 1777852804 | 25° C | 11% | 1010 hPa | 0 mm | - | - | - |
| 1777851904 | 25° C | 11% | 1010 hPa | 0 mm | - | - | - |
| 1777851603 | 25° C | 12% | 1010 hPa | 0 mm | - | - | - |
| 1777850703 | 24.44° C | 12% | 1010.1 hPa | 0 mm | - | - | - |
| 1777850103 | 24.44° C | 12% | 1010.1 hPa | 0 mm | - | - | - |
| 1777849804 | 24.44° C | 12% | 1010.2 hPa | 0 mm | - | - | - |
| 1777849204 | 25.56° C | 12% | 1010.6 hPa | 0 mm | - | - | - |
| 1777847403 | 25.56° C | 12% | 1010.7 hPa | 0 mm | - | - | - |
| 1777844104 | 26.11° C | 12% | 1011.8 hPa | 0 mm | - | - | - |
| 1777840503 | 25° C | 10% | 1012.5 hPa | 0 mm | - | - | - |
| 1777833303 | 23.89° C | 17% | 1014.5 hPa | 0 mm | - | - | - |
| 1777833004 | 24.44° C | 17% | 1014.5 hPa | 0 mm | - | - | - |
* Rain latest hour (hover to see other rain measurements)
** Current wind speed in m/s (hover to see current wind gust speed)